Lexington Weather

Lexington, Massachusetts, USA

56°F
10/22/2020 8:16pm 
  • Lexington Conditions: Mostly cloudy
  • Temperature: 55.8°F / 13.2°C 
  • Dew Point: 54.3°F 
  • Relative Humidity: 95
  • Wind: Calm, 10-min avg: Calm, gust: 1 mph
  • Barometer: 30.22 in Steady
  • Visibility: 7 miles
  • Rain Today: 0.00 in
  •   
Southeast Middlesex County - Special Weather Statement
 - SEE ALL NEARBY ALERTS -

Regional Weather Roundup
for Boston / Norton, MA

        
000
ASUS41 KBOX 160404
RWRBOX

REGIONAL WEATHER ROUNDUP
NATIONAL WEATHER SERVICE BOSTON/NORTON MA
1200 AM EDT FRI OCT 16 2020

NOTE:  "FAIR" INDICATES FEW OR NO CLOUDS BELOW 12,000 FEET WITH NO 
SIGNIFICANT WEATHER AND/OR OBSTRUCTIONS TO VISIBILITY.

MAZALL-160500-
EASTERN MASSACHUSETTS
  
CITY           SKY/WX    TMP DP  RH WIND       PRES   REMARKS
BOSTON         PTCLDY    60  56  86 S10       30.04S                  
BEVERLY        CLEAR     61  56  83 SE6       30.03S                  
LAWRENCE       PTCLDY    62  57  83 S7        30.04S                  
BEDFORD        PTCLDY    61  57  87 S8        30.02S                  
BLUE HILL        N/A     59  57  93 S20G26    30.03S                  
NORWOOD        CLEAR     62  57  83 S6        30.03S                  
MARSHFIELD     CLEAR     63  61  94 S7        30.05S                  
PLYMOUTH       CLEAR     63  58  83 S8        30.06S                  
TAUNTON        CLEAR     65  60  84 S7        30.05S                  
NEW BEDFORD    MOCLDY    64  61  90 S7        30.06R                  
$$

MAZALL-160500-
CAPE COD AND THE ISLANDS
  
CITY           SKY/WX    TMP DP  RH WIND       PRES   REMARKS
FALMOUTH       CLEAR     63  59  88 S12       30.08S                  
HYANNIS        CLEAR     64  61  90 S10       30.06F                  
CHATHAM        CLEAR     61  58  90 VRB7      30.10S                  
PROVINCETOWN   CLEAR     61  59  93 S10       30.08S                  
NANTUCKET      CLEAR    N/A N/A N/A S14       30.10S                  
MARTHAS VNYRD  CLEAR     64  61  90 S16       30.07F                  
$$
 
MAZALL-160500-
CENTRAL AND WESTERN MASSACHUSETTS
  
CITY           SKY/WX    TMP DP  RH WIND       PRES   REMARKS
WORCESTER      PTCLDY    58  55  90 S10       30.03S                  
FITCHBURG      MOCLDY    63  57  81 S8        30.02R                  
ORANGE         MOCLDY    62  57  83 S13       30.00S                  
SPRINGFIELD    MOCLDY    62  57  85 S6        29.98S                  
WESTFIELD      MOCLDY    58  57  97 S7        29.99S                  
NORTH ADAMS    LGT RAIN  60  49  66 SE12G18   29.97S                  
PITTSFIELD     MOCLDY    57  51  80 CALM      29.98R                  
$$
 
RIZALL-160500-
RHODE ISLAND
  
CITY           SKY/WX    TMP DP  RH WIND       PRES   REMARKS
PROVIDENCE     PTCLDY    62  60  93 S9        30.05S                  
NEWPORT        CLEAR     64  62  93 S13G20    30.05S                  
BLOCK ISLAND   PTCLDY    64  60  87 SW13      30.06S                  
SMITHFIELD     PTCLDY    61  60  97 VRB6        N/A                   
WESTERLY       CLEAR     65  60  84 S13G20    30.05S                  
$$
 
CTZALL-160500-
CONNECTICUT
  
CITY           SKY/WX    TMP DP  RH WIND       PRES   REMARKS
BRADLEY INTL   PTCLDY    61  57  87 S9        29.99S                  
HARTFORD       PTCLDY    63  58  83 S7        30.00S                  
BRIDGEPORT     PTCLDY    66  61  84 S15       30.00F                  
DANBURY        PTCLDY    62  59  90 S9        30.00S                  
GROTON         MOCLDY    66  61  84 S16       30.03                   
NEW HAVEN      PTCLDY    68  63  84 S10       30.01S                  
CHESTER        CLOUDY    66  63  88 S7G16     30.02S                  
MERIDEN        CLEAR     62  58  86 S6        30.01S                  
WILLIMANTIC    PTCLDY    54  53  97 CALM      30.03S FOG              
OXFORD         CLOUDY    61  60  97 S9        30.01S                  
$$

MEZ002-015-021-024-NHZ003-005-008-011-012-014-VTZ005-008-160500-
NORTHERN NEW ENGLAND
  
CITY           SKY/WX    TMP DP  RH WIND       PRES   REMARKS
PORTLAND ME    PTCLDY    57  57 100 S10       30.02R                  
BANGOR ME      PTCLDY    58  54  86 S15       30.03R                  
CONCORD NH     CLEAR     54  49  83 S5        29.99F                  
MANCHESTER NH  PTCLDY    61  54  77 S8        29.99S                  
NASHUA NH      MOCLDY    58  58 100 SE6       30.01F                  
PORTSMOUTH NH  PTCLDY    56  54  92 SE7       30.00F                  
JAFFREY NH     PTCLDY    61  54  77 S8        30.00F                  
KEENE NH       CLOUDY    57  54  89 CALM      30.00R                  
BURLINGTON VT  LGT RAIN  58  50  75 N9        29.94R                  
MT. WASHINGTON PTCLDY    41  39  93 W39G49      N/A  WCI  28          
$$

NYZ052-076-160500-
EASTERN NEW YORK
  
CITY           SKY/WX    TMP DP  RH WIND       PRES   REMARKS
ALBANY         CLOUDY    57  49  74 SW7       29.98R                  
NEW YORK CITY  PTCLDY    66  58  75 S8        29.98F                  
$$
 
ANZALL-160500-
MARINE OBSERVATIONS
  
STATION/POSITION TIME  TEMP    WIND        PRES    VSBY  WAVE
                       AIR SEA DIR/SP/G                  HT/PER
                 (UTC) (F)     (DEG/KT/KT) (MB)    (MI)  (FT/S)
BOSTON BUOY      0350   60 58  140/ 14/ 17 1016.2R         3/ 9
BUZZARDS BAY     0300          180/ 21/ 22 1018.3F
NANTUCKET SOUND  0350      62  170/ 16/ 19   N/A           2/ 3
MASS BAY-STELLWA NOT AVBL
ISLE OF SHOALS   0300   60     180/ 19/ 20 1016.4R
S OF BLOCK IS    0326      64                N/A           5/ 6
$$

......................KEY.........................
  SKY/WX - SKY CONDITION/PRESENT WEATHER
  TMP    - TEMPERATURE IN FAHRENHEIT
  DWPT   - DEWPOINT IN FAHRENHEIT
  RH     - RELATIVE HUMIDITY IN PERCENT
  WIND   - DIRECTION AND SPEED IN MPH
  PRES   - MEAN SEA LEVEL PRESSURE IN INCHES OF HG
  WCI    - WIND CHILL INDEX
  VSB    - VISIBILITY IN MILES
  HX     - HEAT INDEX
  TC     - TEMPERATURE IN CELSIUS
  VRB    - VARIABLE WIND DIRECTION
  N/A    - NOT AVAILABLE
  
      

Other recent Regional Weather Roundups

Thu Oct 22, 8:04pm

Thu Oct 22, 7:05pm

Thu Oct 22, 6:04pm

Thu Oct 22, 5:04pm

Thu Oct 22, 4:05pm

Thu Oct 22, 3:04pm

Thu Oct 22, 2:05pm

Thu Oct 22, 1:04pm

Thu Oct 22, 12:04pm

Thu Oct 22, 11:04am

Thu Oct 22, 10:05am

Thu Oct 22, 9:04am

Thu Oct 22, 8:05am

Thu Oct 22, 7:04am

Thu Oct 22, 6:04am

Thu Oct 22, 5:04am

Thu Oct 22, 4:04am

Thu Oct 22, 3:04am

Thu Oct 22, 2:04am

Thu Oct 22, 1:04am

Thu Oct 22, 12:04am

Wed Oct 21, 11:05pm

Wed Oct 21, 10:04pm

Wed Oct 21, 9:04pm

Wed Oct 21, 8:04pm

Wed Oct 21, 7:04pm

Wed Oct 21, 6:04pm

Wed Oct 21, 5:05pm

Wed Oct 21, 4:04pm

Wed Oct 21, 3:04pm

Wed Oct 21, 2:05pm

Wed Oct 21, 1:04pm

Wed Oct 21, 12:04pm

Wed Oct 21, 11:04am

Wed Oct 21, 10:04am

Wed Oct 21, 9:04am

Wed Oct 21, 8:04am

Wed Oct 21, 7:04am

Wed Oct 21, 6:04am

Wed Oct 21, 5:04am

Wed Oct 21, 4:04am

Wed Oct 21, 3:04am

Wed Oct 21, 2:04am

Wed Oct 21, 1:04am

Wed Oct 21, 12:04am

Tue Oct 20, 11:05pm

Tue Oct 20, 10:04pm

Tue Oct 20, 9:04pm

Tue Oct 20, 8:05pm

Tue Oct 20, 7:04pm

Tue Oct 20, 6:04pm

Tue Oct 20, 5:05pm

Tue Oct 20, 4:04pm

Tue Oct 20, 3:05pm

Tue Oct 20, 2:07pm

Tue Oct 20, 1:04pm

Tue Oct 20, 12:04pm

Tue Oct 20, 11:04am

Tue Oct 20, 10:05am

Tue Oct 20, 9:04am

Tue Oct 20, 8:04am

Tue Oct 20, 7:04am

Tue Oct 20, 6:04am

Tue Oct 20, 5:04am

Tue Oct 20, 4:04am

Tue Oct 20, 3:04am

Tue Oct 20, 2:04am

Tue Oct 20, 1:04am

Tue Oct 20, 12:04am

Mon Oct 19, 11:04pm

Mon Oct 19, 10:04pm

Mon Oct 19, 9:04pm

Mon Oct 19, 8:04pm

Mon Oct 19, 7:04pm

Mon Oct 19, 6:04pm

Mon Oct 19, 5:04pm

Mon Oct 19, 4:04pm

Mon Oct 19, 3:04pm

Mon Oct 19, 2:04pm

Mon Oct 19, 1:05pm

Mon Oct 19, 12:04pm

Mon Oct 19, 11:04am

Mon Oct 19, 10:04am

Mon Oct 19, 9:04am

Mon Oct 19, 8:04am

Mon Oct 19, 7:04am

Mon Oct 19, 6:04am

Mon Oct 19, 5:04am

Mon Oct 19, 4:04am

Mon Oct 19, 3:04am

Mon Oct 19, 2:04am

Mon Oct 19, 1:04am

Mon Oct 19, 12:05am

Sun Oct 18, 11:04pm

Sun Oct 18, 10:04pm

Sun Oct 18, 9:04pm

Sun Oct 18, 8:04pm

Sun Oct 18, 7:05pm

Sun Oct 18, 6:04pm

Sun Oct 18, 5:05pm

Sun Oct 18, 4:05pm

Sun Oct 18, 3:04pm

Sun Oct 18, 2:05pm

Sun Oct 18, 1:04pm

Sun Oct 18, 12:04pm

Sun Oct 18, 11:04am

Sun Oct 18, 10:04am

Sun Oct 18, 9:04am

Sun Oct 18, 8:04am

Sun Oct 18, 7:04am

Sun Oct 18, 6:04am

Sun Oct 18, 5:04am

Sun Oct 18, 4:04am

Sun Oct 18, 3:04am

Sun Oct 18, 2:04am

Sun Oct 18, 1:04am

Sun Oct 18, 12:04am

Sat Oct 17, 11:05pm

Sat Oct 17, 10:04pm

Sat Oct 17, 9:04pm

Sat Oct 17, 8:04pm

Sat Oct 17, 7:04pm

Sat Oct 17, 6:04pm

Sat Oct 17, 5:05pm

Sat Oct 17, 4:04pm

Sat Oct 17, 3:04pm

Sat Oct 17, 2:05pm

Sat Oct 17, 1:05pm

Sat Oct 17, 12:04pm

Sat Oct 17, 11:05am

Sat Oct 17, 10:04am

Sat Oct 17, 9:04am

Sat Oct 17, 8:04am

Sat Oct 17, 7:04am

Sat Oct 17, 6:04am

Sat Oct 17, 5:04am

Sat Oct 17, 4:04am

Sat Oct 17, 3:04am

Sat Oct 17, 2:04am

Sat Oct 17, 1:05am

Sat Oct 17, 12:04am

Fri Oct 16, 11:05pm

Fri Oct 16, 10:04pm

Fri Oct 16, 9:05pm

Fri Oct 16, 8:04pm

Fri Oct 16, 7:05pm

Fri Oct 16, 6:04pm

Fri Oct 16, 5:04pm

Fri Oct 16, 4:05pm

Fri Oct 16, 3:04pm

Fri Oct 16, 2:04pm

Fri Oct 16, 1:04pm

Fri Oct 16, 12:04pm

Fri Oct 16, 11:05am

Fri Oct 16, 10:04am

Fri Oct 16, 9:04am

Fri Oct 16, 8:04am

Fri Oct 16, 7:04am

Fri Oct 16, 6:04am

Fri Oct 16, 5:04am

Fri Oct 16, 4:04am

Fri Oct 16, 3:04am

Fri Oct 16, 2:04am

Fri Oct 16, 1:04am

Thu Oct 15, 11:04pm

Thu Oct 15, 10:04pm

Thu Oct 15, 9:05pm

Meta data:

ID: 8f80d82b-1bb3-4826-9c7a-8022df0f4215
Link: https://api.weather.gov/products/8f80d82b-1bb3-4826-9c7a-8022df0f4215